ハリントン-エーベル彗星

52P/Harrington-Abell (2021)

English version
Home page
Updated on December 18, 2022

---------------------------------------------------------------------

・ プロフィール

・ 写真集

・ 軌道要素

Epoch 2022 Jan. 21.0 TT = JDT 2459600.5
T 2021 Oct. 5.19014 TT                                  Rudenko
q   1.7772197            (2000.0)            P               Q
n   0.12971548     Peri.  139.59126     -0.44914622     -0.89072235
a   3.8649290      Node   336.83794     +0.76709421     -0.34434930
e   0.5401676      Incl.   10.23159     +0.45807656     -0.29671071
P   7.60
From 1577 observations 1983 Sept. 18-2022 Jan. 31, mean residual 0".7.
     Nongravitational parameters A1 = -0.14, A2 = +0.0084.

・ 星図

・ 光度変化

        m1 = 10.5 + 5 logΔ + 17.5 log r(t + 30)

---------------------------------------------------------------------

軌道要素はM.P.E.C. 2022-C56に掲載されたものです。
星図はステラナビゲータ Ver.10 (アストロアーツ) で作成したものです。
光度グラフはComet for Windowsで作成したものです。

---------------------------------------------------------------------

Copyright(C) Seiichi Yoshida (comet@aerith.net). All rights reserved.